This demonstration page uses our WeatherBlox Daily Observations layout. Learn more.

Left ArrowRight Arrow

30.21309, -93.2044

Hourly Observations for August 30, 2020

Temp ( °F °C ) Dew Point ( °F °C ) Humidity (%) Winds ( mph kmh ) Pressure ( in mb ) Visibility ( mi km ) Precip ( " mm )
12:15 am 00:15 Partly Cloudy 81 27.2 79 25.9 93 93 S 5 7 29.86 1011 10 16 0.00 0.00
12:35 am 00:35 Partly Cloudy 81 27.3 78 25.8 92 92 S 5 7 29.86 1011 10 16 0.00 0.00
12:55 am 00:55 Clear 80 26.9 78 25.7 93 93 S 5 7 29.85 1011 10 16 0.00 0.00
1:15 am 01:15 Clear 79 25.9 78 25.4 97 97 S 3 6 29.85 1011 10 16 0.00 0.00
1:35 am 01:35 Clear 78 25.5 77 25.1 98 98 S 5 7 29.84 1010 10 16 0.00 0.00
1:55 am 01:55 Clear 79 26 78 25.6 98 98 S 3 6 29.84 1010 10 16 0.00 0.00
2:15 am 02:15 Clear 79 26.1 78 25.6 97 97 S 5 7 29.83 1010 10 16 0.00 0.00
2:35 am 02:35 Clear 78 25.8 78 25.4 98 98 Calm 29.84 1010 10 16 0.00 0.00
2:55 am 02:55 Partly Cloudy 79 25.9 78 25.6 98 98 Calm 29.85 1011 10 16 0.00 0.00
3:15 am 03:15 Cloudy 79 25.9 78 25.6 98 98 Calm 29.85 1011 10 16 0.00 0.00
3:35 am 03:35 Mostly Cloudy 78 25.5 77 25.2 98 98 Calm 29.85 1011 10 16 0.00 0.00
3:55 am 03:55 Partly Cloudy 78 25.5 77 25.2 98 98 SSW 3 6 29.84 1010 7 11 0.00 0.00
4:15 am 04:15 Clear 77 25.1 77 24.9 99 99 Calm 29.84 1010 10 16 0.00 0.00
4:35 am 04:35 Clear 78 25.3 77 25.1 99 99 Calm 29.83 1010 7 11 0.00 0.00
4:55 am 04:55 Partly Cloudy 78 25.6 78 25.4 99 99 Calm 29.84 1010 10 16 0.00 0.00
5:15 am 05:15 Mostly Cloudy 78 25.7 78 25.5 99 99 N 5 7 29.85 1011 10 16 0.00 0.00
6:00 am 06:00 Mostly Cloudy 79 26 79 26 100 100 Calm 29.86 1011 10 16 0.00 0.00
6:45 am 06:45 Mostly Cloudy 77 25 75 24 94 94 Calm 29.85 1011 10 16 0.00 0.00
7:45 am 07:45 Partly Cloudy 79 26 79 26 100 100 Calm 29.84 1010 10 16 0.00 0.00
8:55 am 08:55 Mostly Cloudy 81 27 81 27 100 100 Calm 29.86 1011 10 16 0.00 0.00
9:51 am 09:51 Mostly Cloudy 84 29 81 27 89 89 Calm 29.85 1011 10 16 0.00 0.00
10:55 am 10:55 Partly Cloudy 84 29 79 26 84 84 S 8 13 29.86 1011 10 16 0.00 0.00
11:41 am 11:41 Sunny 88 31 79 26 75 75 undefined N/A 29.86 1011 10 16 0.00 0.00
11:51 am 11:51 Mostly Sunny 88 31 79 26 75 75 Calm 29.86 1011 10 16 0.00 0.00
12:50 pm 12:50 Mostly Cloudy 88 31 81 27 79 79 SE 10 17 29.84 1010 10 16 0.00 0.00
1:54 pm 13:54 Mostly Cloudy 88 31 79 26 75 75 SSE 12 19 29.82 1010 10 16 0.00 0.00
2:50 pm 14:50 Mostly Cloudy 81 27 73 23 79 79 NW 8 13 29.81 1009 10 16 0.00 0.00
3:50 pm 15:50 Partly Cloudy 88 31 75 24 66 66 SSW 7 11 29.78 1008 10 16 0.00 0.00
4:55 pm 16:55 Mostly Sunny 88 31 79 26 75 75 S 10 17 29.78 1008 10 16 0.00 0.00
5:50 pm 17:50 Mostly Sunny 88 31 75 24 66 66 SSW 9 15 29.77 1008 10 16 0.00 0.00
6:55 pm 18:55 Mostly Sunny 86 30 77 25 75 75 S 10 17 29.76 1008 10 16 0.00 0.00
7:50 pm 19:50 Mostly Clear 84 29 79 26 84 84 S 9 15 29.78 1008 10 16 0.00 0.00
8:55 pm 20:55 Mostly Clear 82 28 79 26 89 89 SSW 6 9 29.80 1009 10 16 0.00 0.00
9:50 pm 21:50 Mostly Clear 81 27 81 27 100 100 SSE 5 7 29.81 1009 10 16 0.00 0.00
10:15 pm 22:15 Clear 81 27.1 80 26.4 96 96 S 5 7 29.82 1010 10 16 0.00 0.00
10:35 pm 22:35 Clear 81 27 80 26.4 97 97 S 5 7 29.82 1010 7 11 0.00 0.00
10:55 pm 22:55 Clear 81 27.2 80 26.6 97 97 S 5 7 29.82 1010 7 11 0.00 0.00
11:15 pm 23:15 Partly Cloudy 81 27.4 80 26.7 96 96 S 5 7 29.82 1010 7 11 0.00 0.00
11:35 pm 23:35 Clear 81 27 81 27 100 100 S 6 9 29.82 1010 7 11 0.00 0.00
11:55 pm 23:55 Mostly Cloudy with Mist and Fog 81 27.3 80 26.8 97 97 SSE 6 9 29.82 1010 5 8 0.00 0.00

Powered by AerisWeather